星链-37801(STARLINK-37801)

导读

STARLINK-37801(NORAD编号69435)是美国SpaceX公司星链第二代星座的V2 Mini型通信卫星,属低轨道互联网组网载荷。该卫星通常由猎鹰9号Block 5火箭发射,部署于高度约550公里、倾角53度的近地轨道,运行周期约94分钟,搭载自动避撞系统与星间链路设备,为全球用户提供低时延高速宽带通信服务。截至2026年6月,该卫星处于在轨运营状态,是星链全球超8000颗活跃组网卫星的组成部分,支撑星链当前超900万用户的接入需求。

Basic Information
目录编号:
69435
目录名称:
STARLINK-37801
国际标识:
2026-126R
轨道中心:
EARTH
卫星名称:
星链-37801
卫星全名:
星链-37801(STARLINK-37801)
卫星状态:
在轨 (已飞行89 天)
发射日期:
2026-06-07 UTC
国别 :
美国 (US)
星等 :
--
Orbit Information
数据来源 国际轨道数据
星历时间: 2026-09-03T22:16:14+0800
17小时前
查看轨道信息
半长轴: 6843.683km
偏心率: 0.0002125
轨道倾角: 97.285°
近地点辐角 59.276°
升交点赤经 108.068°
平近点角 300.869°
近地点: 464.091km
远地点: 467.001km
周期: 93.906分钟
每日圈数: 15.334443
Detailed Information
固有亮度:
5
最大亮度:
2.5
卫星平台:
Starlink V1.0
覆盖范围:
全球
运营商:
太空探索技术公司
运营商所在国:
美国
制造商(研发单位):
太空探索技术公司
制造商所在国:
美国
使用方式:
暂无
Satellite Introduction
Starlink 计划是 SpaceX 推出的全球卫星互联网项目,通过发射低轨道卫星,为全球尤其是偏远地区提供高速、低延迟的互联网服务。自 2019 年起,Starlink 已部署数千颗卫星,旨在缩小全球数字鸿沟,推动互联网普及。该项目还为军事、航空等行业提供通信支持,带来广泛经济效益。
2D Orbit Map
3D Orbit Map
Orbit Altitude Analysis Chart
Orbit Inclination Analysis Chart
Orbit Comprehensive Analysis Chart
View Comprehensive Chart
Conjunction Data List
Event ID Objects TCA Miss Dist (km) Collision Risk Probability Collision Risk Index (CRI) Action
CDM_260906-032504-177206-943521
2026-09-06T
03:25:27+0000
0.896 km
远距离
4.007801E-5 中风险 0.67
CDM_260827-180306-419506-943521
2026-08-27T
18:03:23+0000
2.022 km
极远距离
2.292381E-6 低风险 0.42
CDM_260906-045904-177206-943521
2026-09-06T
04:59:24+0000
2.456 km
极远距离
1.838406E-6 低风险 0.4
CDM_260831-085804-865706-943521
2026-08-31T
08:58:30+0000
2.522 km
极远距离
1.429101E-6 低风险 0.38
CDM_260905-123205-236706-943521
2026-09-05T
12:32:16+0000
2.858 km
极远距离
8.532716E-7 极低风险 0.34